Location: Newark
(42.8481°N, 0.4872°E)
Time: 06:35:51
(UTC+00:00)

Explorer 7 - Pass Details

Date: 26 October 2020
Orbit: 484 x 678 km, 50.3° (Epoch: 30 November)

Event Time Altitude Azimuth Distance (km) Brightness Sun altitude
Rises 18:40:37 0° 299° (WNW) 2,616 11.3 -19.4°
Reaches altitude 10° 18:42:53 10° 308° (NW) 1,754 10.1 -19.8°
Maximum altitude 18:46:38 39° 18° (NNE) 816 7.5 -20.5°
Enters shadow 18:46:51 39° 26° (NNE) 822 7.4 -20.5°
